Theta_e
330 330 329 328 326 325 326 328 331 332 334 335 336 335 334 333 332 334 343 346 347 347 349 352 353 353 355 355 355 354 355 356 357 356 352 347 343 341 342 332 327 324 329 335
333 331 330 329 329 328 327 326 327 329 331 333 333 332 333 332 332 334 340 346 347 348 349 352 354 355 356 355 355 355 356 357 357 354 350 349 347 343 345 341 331 327 326 333
335 333 333 333 331 330 330 328 327 328 329 330 331 333 333 334 334 335 335 343 346 348 348 352 354 356 356 356 355 355 354 357 355 351 348 348 348 347 346 343 332 327 327 335
335 334 335 333 332 332 331 330 329 328 328 329 330 331 331 334 335 337 337 338 345 347 348 352 352 354 353 354 353 349 354 349 351 347 345 346 347 347 347 346 340 332 329 331
337 337 334 332 331 332 332 332 331 329 329 329 330 332 335 336 337 338 339 340 343 346 348 351 350 351 348 353 352 355 350 348 342 341 344 345 347 346 344 342 339 336 335 334
339 337 337 340 338 336 337 336 331 330 330 331 330 334 337 336 338 336 337 341 345 345 346 349 349 350 349 353 351 343 338 340 339 341 345 346 346 346 346 343 341 339 339 339
337 338 337 338 335 336 337 336 339 331 330 330 333 334 340 339 339 340 342 344 345 346 347 349 350 352 352 349 346 350 352 343 340 341 342 346 347 346 346 344 340 339 338 338
337 339 340 334 336 338 341 340 338 338 338 337 338 340 341 343 343 344 346 346 349 350 350 349 351 351 352 353 343 336 333 335 338 343 346 346 347 345 345 344 341 340 339 338
339 339 335 332 335 334 336 338 342 340 339 340 340 342 343 343 345 345 346 346 347 348 348 348 344 338 335 333 334 334 333 336 342 345 346 344 345 344 342 342 341 340 339 338
338 334 334 331 329 330 331 333 335 340 341 341 340 340 340 341 341 342 342 342 343 343 341 338 334 333 335 335 335 336 341 345 345 345 343 343 343 342 341 340 340 339 338 336
336 333 329 329 330 328 327 329 331 334 338 340 342 343 344 344 344 344 343 345 345 345 333 334 336 337 337 336 338 340 344 343 342 343 342 343 342 341 340 339 338 338 334 331
336 331 331 330 327 327 328 328 328 328 330 331 332 334 338 343 344 344 339 336 334 336 338 340 341 340 338 341 342 343 342 342 341 340 339 339 337 336 334 330 330 329 329 330
334 331 327 325 321 321 322 322 323 323 323 324 326 328 330 335 340 343 344 343 341 335 338 341 340 340 341 338 334 334 342 341 338 337 336 335 333 331 329 327 327 327 327 328
330 327 323 321 319 320 319 319 319 318 317 319 321 323 324 328 329 331 341 342 339 339 342 344 343 339 339 338 337 336 333 332 334 333 330 330 330 330 330 328 327 328 328 327
321 321 319 318 317 319 320 319 319 320 320 320 315 316 317 321 321 329 334 338 341 342 340 341 341 337 336 335 333 333 333 331 330 330 330 329 330 331 330 328 327 323 326 324
318 318 320 319 318 320 321 321 320 320 321 321 322 318 318 314 321 322 326 333 334 337 341 340 340 337 335 334 332 333 332 329 330 330 330 331 330 328 327 327 326 324 322 322
317 317 316 316 321 322 321 322 322 322 322 322 321 321 322 322 322 324 325 329 334 337 338 338 339 336 335 334 334 334 331 328 329 329 327 327 327 327 326 326 325 324 324 322
321 320 321 322 322 322 323 323 323 324 325 325 326 326 326 325 325 325 327 331 334 334 335 334 333 333 334 334 333 332 330 329 328 329 329 328 328 327 326 325 324 324 322 320
322 322 323 323 323 324 324 324 323 323 324 326 326 327 326 326 327 328 332 332 334 333 332 330 328 332 333 331 331 330 330 330 329 329 328 328 326 326 325 325 324 323 321 320
321 322 322 322 323 324 324 324 324 324 325 325 327 327 327 328 329 329 329 329 329 330 331 328 331 331 331 326 326 329 329 328 328 328 328 326 326 325 325 324 323 321 320 319
319 318 319 320 321 322 324 324 324 324 324 325 325 326 326 327 327 327 326 327 329 326 325 327 327 327 326 324 325 325 325 325 325 326 326 324 325 324 324 324 322 320 319 318
318 318 318 318 317 318 319 321 323 323 323 323 324 325 325 325 325 325 325 325 322 323 323 323 322 319 318 319 321 320 321 322 323 323 324 324 324 324 324 323 321 319 319 316
318 318 317 318 318 318 318 318 318 319 320 321 321 322 322 322 323 323 324 321 320 317 319 319 313 313 313 317 317 317 317 316 316 316 317 319 320 321 321 321 319 318 317 315
319 318 319 319 318 317 317 319 318 318 318 317 317 320 320 319 321 321 321 319 316 317 318 317 316 313 313 314 314 313 313 314 314 314 314 314 313 314 316 318 319 319 316 314
320 320 319 319 317 316 316 318 318 317 317 316 316 316 317 316 316 315 316 318 318 317 319 318 316 314 313 314 313 313 312 311 310 310 310 310 310 311 312 313 315 315 316 316
319 317 317 319 318 316 315 314 314 315 315 315 315 315 315 316 316 316 316 316 316 316 315 316 317 316 315 314 314 313 313 311 311 311 310 310 309 309 309 311 312 312 312 312
314 313 315 315 315 314 314 314 314 315 315 315 315 315 315 315 315 315 315 315 316 316 316 316 315 315 315 314 314 314 314 313 312 312 311 311 311 310 308 309 309 309 309 309
Wind_Speed
25 23 24 25 25 26 29 29 27 24 29 22 23 18 22 24 22 21 14 17 21 25 29 30 32 34 31 30 29 28 28 28 30 32 37 38 43 45 44 46 44 35 32 28
21 24 24 21 25 27 28 28 29 31 30 22 27 34 28 28 26 25 21 21 21 24 27 30 30 29 26 26 26 26 27 28 27 29 30 35 40 45 49 50 49 48 45 33
19 21 23 25 27 27 29 28 28 28 25 24 28 24 30 30 31 28 27 23 20 26 31 28 27 25 26 25 24 25 26 25 24 25 24 24 31 39 50 50 50 50 43 34
15 17 21 20 24 26 28 28 30 28 25 23 28 30 33 36 31 27 26 26 20 21 23 25 25 24 23 22 24 24 25 24 22 22 19 20 26 30 38 48 53 50 46 39
14 16 13 15 13 14 24 28 25 26 23 25 28 22 20 25 24 28 25 24 21 21 23 25 25 25 25 24 24 22 21 21 19 16 17 18 21 24 27 32 39 41 35 34
10 19 18 6 8 9 10 14 24 25 25 24 22 15 16 16 19 20 15 18 18 20 24 24 26 26 26 25 24 22 19 16 14 13 15 16 18 21 22 25 28 23 26 26
17 13 9 6 7 2 6 5 23 28 33 27 21 18 7 7 11 9 10 12 17 20 21 23 25 25 25 23 20 17 16 15 14 12 14 17 16 20 19 19 20 21 21 25
12 13 16 6 4 5 6 15 15 13 15 20 18 12 12 11 15 17 18 20 22 24 22 23 24 24 23 21 20 18 13 10 10 14 16 15 15 18 17 17 19 20 20 22
6 4 6 5 2 2 4 6 11 1 7 13 16 16 19 22 24 23 21 23 23 24 25 23 23 24 22 17 12 13 12 14 16 16 13 13 13 15 14 13 15 18 20 18
10 5 8 13 14 13 17 8 5 11 16 18 21 21 18 22 25 28 26 25 23 24 24 22 19 16 15 15 13 10 12 14 15 15 13 11 10 11 12 12 14 16 15 9
13 12 15 13 16 15 16 14 14 21 21 18 18 17 15 18 19 19 23 22 21 19 21 19 16 14 13 13 15 13 15 14 12 13 14 13 14 12 8 9 9 7 7 8
8 14 16 11 12 8 12 11 13 20 22 21 21 21 19 20 18 15 19 19 18 16 14 16 17 17 17 16 14 15 13 11 11 11 11 10 10 10 10 8 11 13 12 10
7 14 24 17 14 8 7 8 14 20 19 19 19 17 17 17 17 15 14 16 14 16 14 15 16 17 14 17 16 13 13 13 13 11 10 10 10 8 7 10 9 10 11 11
18 24 21 17 14 4 5 7 15 16 17 15 16 15 15 14 13 12 12 12 12 13 11 12 14 17 14 12 16 17 15 14 9 8 9 10 10 10 8 7 8 12 12 11
25 25 26 21 16 12 1 3 15 11 11 13 11 12 12 12 11 10 9 7 8 8 9 10 11 13 15 15 16 14 10 9 10 11 11 11 11 11 10 10 10 11 13 11
28 24 20 19 12 4 3 7 11 8 6 4 7 8 7 5 5 4 3 3 5 7 8 9 11 14 15 14 14 9 9 11 11 10 11 10 11 10 11 11 12 11 10 10
28 17 20 13 10 5 8 7 8 7 7 6 5 3 3 3 4 2 1 1 5 7 8 9 10 12 12 12 11 8 10 11 12 9 9 9 9 10 10 11 11 11 11 12
14 16 13 9 7 4 7 5 7 8 10 8 5 4 3 3 3 1 1 3 6 9 10 10 9 8 9 10 10 11 11 9 9 7 7 7 8 9 10 10 11 12 12 14
13 12 10 10 9 8 9 9 9 11 12 11 10 10 9 8 9 10 8 8 9 9 9 8 9 10 9 10 9 8 8 8 8 8 8 9 10 9 10 11 12 13 13 11
13 12 12 13 12 12 12 12 10 11 11 12 11 12 13 13 12 11 10 11 10 9 9 10 8 7 6 6 6 4 5 6 7 8 9 9 9 11 12 14 14 13 13 12
13 13 14 13 13 13 13 11 11 12 12 12 12 12 12 12 11 9 8 10 10 11 11 12 8 6 4 4 3 3 4 5 7 8 9 9 11 12 13 14 15 14 13 12
12 14 15 13 13 14 14 12 12 11 12 12 12 12 11 11 9 10 9 7 7 12 7 6 5 8 4 6 1 2 3 5 6 7 8 9 10 11 12 14 15 14 14 13
11 11 10 10 9 9 9 11 11 10 10 10 8 9 8 6 5 3 4 5 4 9 6 4 6 6 6 2 1 3 3 4 5 5 6 7 9 10 12 14 14 15 14 13
10 9 8 9 9 9 7 5 7 8 9 9 8 5 5 4 4 3 2 1 3 3 2 1 2 4 5 4 4 4 5 6 7 7 8 9 10 11 13 15 16 17 18 17
7 7 6 7 8 11 9 6 3 5 8 6 5 6 5 5 3 4 3 3 4 3 5 7 7 8 7 6 6 6 6 6 7 7 8 8 10 14 15 16 15 15 17 19
9 7 8 7 5 6 7 8 8 6 7 7 7 6 5 4 5 6 6 6 5 6 6 7 8 8 6 8 9 9 9 9 9 8 8 9 8 9 12 15 16 16 16 18
8 10 9 9 10 9 9 9 9 9 9 8 9 8 7 8 9 10 10 10 10 10 10 11 11 11 11 12 12 12 13 12 12 11 11 12 11 10 10 12 13 13 14 15
Wind_Direction
230 244 223 221 210 225 234 240 239 239 241 227 239 232 249 257 258 267 257 227 205 198 200 199 201 205 207 209 210 208 211 212 215 220 231 230 229 231 230 231 235 230 241 263
233 234 241 241 229 230 225 233 240 244 247 242 226 241 243 247 251 252 251 232 212 202 201 201 200 201 200 200 202 201 206 210 212 225 239 230 233 232 231 231 235 235 235 248
238 225 238 239 240 233 234 231 235 237 238 235 243 238 236 241 242 244 246 237 219 212 205 200 196 195 194 193 191 198 204 205 212 224 233 231 228 230 229 233 228 228 238 243
238 230 237 244 242 237 243 236 232 235 241 229 236 231 233 230 237 240 243 243 228 215 208 201 190 188 184 185 191 197 197 202 207 217 224 228 222 224 233 232 229 230 233 243
235 230 237 228 217 258 243 238 240 235 232 234 223 228 250 240 233 235 238 237 226 210 199 189 183 180 181 178 181 185 193 197 201 213 219 222 224 225 227 228 229 233 233 240
202 244 236 52 21 352 327 256 236 234 218 225 229 233 244 225 221 230 232 220 203 189 184 184 176 175 171 170 173 177 181 186 195 207 215 223 235 224 224 228 238 228 236 238
229 229 211 31 342 139 211 289 321 241 235 226 230 237 261 194 191 170 180 174 170 167 171 167 162 162 157 158 162 165 170 178 191 206 227 225 220 227 229 228 230 232 230 234
228 216 226 5 209 236 353 328 311 274 245 236 218 184 159 147 130 125 130 130 136 137 145 146 147 147 145 147 155 162 174 181 198 215 218 218 218 233 233 234 246 245 244 249
241 190 86 74 91 45 36 358 353 113 161 164 163 156 146 138 123 119 121 122 124 125 126 129 137 145 145 143 148 150 178 204 211 197 184 220 218 226 232 236 238 247 249 241
167 126 94 102 86 74 76 76 74 79 101 116 119 119 121 111 112 114 109 104 109 115 121 128 137 143 142 147 166 187 189 174 174 180 171 200 207 218 228 239 242 239 233 230
102 127 110 81 76 79 85 80 84 89 91 93 93 91 93 91 91 96 100 102 103 106 116 121 128 134 140 153 160 158 156 159 166 173 180 190 196 194 192 223 216 214 204 216
163 149 118 94 70 57 72 80 71 75 72 68 72 73 71 70 73 76 98 106 114 118 128 137 141 153 153 141 138 133 128 141 145 151 156 170 188 198 207 221 211 210 224 226
116 123 106 104 91 60 67 86 89 83 78 74 68 65 66 64 64 66 76 94 108 115 139 143 146 141 139 148 151 136 140 146 146 154 159 163 168 173 189 202 226 234 233 236
128 122 90 89 80 29 71 90 81 82 84 83 79 75 67 66 71 77 76 92 110 109 116 126 138 145 143 134 132 132 144 149 145 160 167 169 174 179 190 189 198 214 211 213
79 97 101 106 106 70 310 150 88 65 65 64 66 69 63 49 53 57 76 103 117 119 126 141 144 142 152 157 149 142 146 164 161 162 166 172 172 178 184 180 184 179 198 199
87 84 93 98 129 149 75 54 81 86 72 84 75 58 59 79 27 33 56 92 137 148 159 155 149 156 161 163 161 162 169 168 159 171 181 168 171 176 185 183 185 190 186 191
86 82 74 47 39 44 60 46 61 58 54 56 63 120 133 142 171 194 252 174 153 151 150 147 156 166 173 177 177 191 182 169 158 167 173 179 187 189 192 193 196 201 204 205
149 145 150 161 161 120 84 79 76 77 66 55 57 68 97 146 134 107 82 149 136 119 119 133 145 158 170 184 179 182 184 190 188 194 196 195 196 198 201 204 206 206 203 215
101 106 113 109 102 96 86 73 66 60 58 60 62 67 80 82 85 95 98 108 117 108 113 130 133 125 140 160 158 178 198 204 215 212 209 207 205 211 216 214 214 212 206 213
86 86 83 80 73 67 69 72 65 65 62 65 69 68 66 66 73 83 89 83 85 103 101 119 119 133 144 181 173 202 216 218 219 218 215 218 218 219 222 219 213 207 205 214
79 77 71 67 66 63 62 66 62 54 52 55 62 67 67 69 71 76 86 79 82 90 91 96 109 107 119 116 115 197 210 220 224 227 232 227 231 226 226 213 209 203 212 216
75 70 63 58 63 64 59 54 57 55 53 53 56 58 56 57 60 60 71 87 91 96 99 102 103 120 115 103 159 198 220 227 232 237 241 236 226 226 220 212 210 215 218 224
59 58 57 47 51 54 52 52 52 52 50 49 50 57 57 61 64 54 91 101 110 111 106 121 82 69 52 69 253 247 240 239 236 235 240 243 242 240 228 224 229 232 225 226
38 41 43 41 47 39 31 36 42 37 37 33 24 38 48 47 77 46 25 213 164 138 154 142 354 341 359 289 295 284 271 261 255 254 254 258 256 250 244 242 242 241 234 243
18 16 8 8 12 24 23 18 350 10 14 12 25 41 41 38 39 2 346 293 268 274 279 278 297 294 310 282 282 284 282 273 262 257 259 272 268 255 250 246 244 244 242 245
14 360 354 1 7 8 12 16 12 10 7 4 6 9 355 344 337 338 334 325 323 303 301 283 284 291 289 283 277 276 275 267 269 271 266 274 288 276 248 244 243 248 253 251
36 39 34 35 26 14 2 354 344 342 343 336 330 331 327 319 315 312 309 304 298 294 290 287 284 281 277 272 271 268 267 266 265 263 267 272 275 274 259 249 248 248 251 251